Theta_e
324 323 327 332 334 332 332 332 336 340 335 336 338 336 331 329 328 325 328 329 330 335 332 333 332 331 336 337 337 341 343 343 346 347 348 345 335 338 339 338 339 338 337 336 337 336 335 339 340 340 340 339 338 336 335 334 329 328 328 325 318 317 327 334 336 335 335 336 336 337 336 336 336 336 335 336 336 336 336 336 336 335 334 333 332 332 331 330 331 333 333 333 331 331 331 329 327
323 324 328 332 332 328 333 336 340 342 335 335 337 337 334 328 325 328 331 331 335 334 332 338 338 338 340 338 337 337 338 337 340 341 340 338 338 340 338 338 339 338 337 337 337 335 335 339 341 340 340 339 338 337 336 333 329 329 327 323 321 325 327 330 335 335 335 335 336 336 336 336 335 335 334 334 334 334 334 334 334 333 332 331 331 330 330 329 329 331 332 332 330 330 330 329 328
324 326 330 332 331 329 336 338 340 341 336 336 335 335 333 329 329 331 331 329 334 334 333 339 339 339 338 336 336 336 339 339 339 340 338 339 340 339 338 339 338 338 337 336 337 334 335 338 341 341 340 339 338 337 336 332 330 331 328 322 324 332 332 328 331 335 335 335 335 334 335 335 334 334 332 332 333 333 332 332 332 332 331 330 330 329 329 328 328 331 332 331 329 329 330 329 329
326 328 330 333 335 336 341 340 343 342 336 338 336 336 338 336 335 331 331 324 325 334 337 336 334 333 332 336 336 334 342 342 341 340 340 340 340 339 338 339 338 338 337 337 337 333 336 339 341 341 340 340 338 337 336 332 332 333 329 324 325 331 334 328 327 333 334 333 333 333 333 333 333 333 332 331 331 331 331 331 331 330 330 329 328 328 328 327 327 329 331 330 328 329 329 329 330
326 329 331 331 335 339 340 336 341 340 333 338 337 341 343 339 337 332 334 327 325 334 335 333 337 334 332 339 339 338 340 341 339 337 340 340 340 340 338 339 338 338 337 338 337 333 336 339 341 341 340 339 339 337 335 333 333 333 329 326 327 327 329 328 328 331 332 332 331 331 331 331 332 331 330 331 331 330 330 329 329 328 328 327 327 328 327 327 327 327 329 330 328 328 329 329 330
326 329 333 330 331 333 337 337 338 338 334 338 337 344 347 337 334 332 334 331 327 330 328 331 338 337 340 341 337 339 337 337 339 337 339 340 340 339 339 339 338 338 338 338 336 333 336 340 341 341 341 339 339 337 335 335 334 332 329 328 329 328 327 329 331 331 331 331 330 330 330 329 331 330 330 331 330 329 329 329 327 327 327 327 327 327 327 327 327 328 328 329 329 328 328 329 329
326 332 337 333 334 332 338 341 338 338 335 335 333 337 341 335 332 330 334 332 327 328 325 331 339 339 343 339 336 335 333 336 337 337 339 340 340 339 340 338 338 338 337 338 335 332 337 340 341 341 341 340 339 337 335 335 335 332 330 329 330 332 331 330 331 331 330 330 329 329 329 329 329 329 330 330 329 328 329 328 326 326 327 327 327 327 327 326 327 328 328 329 329 327 326 327 327
327 333 336 337 342 336 338 342 336 337 335 333 334 333 333 333 332 330 335 332 328 330 327 335 340 337 338 336 341 337 332 336 335 337 339 339 340 339 340 339 338 338 338 337 333 333 338 340 341 341 340 340 339 338 336 335 335 332 330 330 332 334 332 331 331 331 330 329 328 329 329 328 328 328 330 329 328 328 329 328 326 327 327 327 327 327 327 327 328 328 328 328 329 327 324 326 326
328 330 334 339 343 339 340 342 336 335 336 333 333 333 332 330 331 330 333 333 331 330 330 340 338 332 336 339 346 339 333 336 335 338 339 340 341 339 339 338 338 338 339 336 332 334 339 340 340 341 340 340 339 337 336 336 336 333 332 332 333 333 332 331 330 330 330 329 329 328 328 328 328 328 328 327 327 328 328 328 326 327 327 327 327 327 327 327 328 327 328 327 328 327 324 324 325
329 332 337 340 340 342 342 340 338 335 336 337 333 331 331 329 330 329 330 331 330 327 330 336 333 333 339 344 348 338 336 337 336 340 340 341 340 339 339 338 338 338 339 336 331 333 339 341 340 341 340 340 339 337 336 336 336 334 334 333 332 332 331 330 329 330 329 329 329 328 328 328 327 328 327 326 326 327 327 328 327 326 327 327 327 327 326 327 327 327 327 327 328 328 325 323 323
332 335 336 340 340 342 341 340 338 335 335 338 334 331 330 328 327 330 329 328 329 327 329 330 332 342 343 346 348 336 335 337 338 340 339 341 340 340 339 338 339 337 339 338 332 333 339 340 340 341 340 340 339 337 336 336 337 335 335 334 332 332 332 331 329 329 329 329 329 328 328 327 327 327 327 327 326 327 327 327 327 326 326 327 327 327 326 327 327 326 327 327 326 327 325 322 322
334 338 336 340 343 341 340 340 338 335 337 336 333 331 331 328 326 329 330 328 328 328 329 329 333 342 345 351 346 333 335 339 338 340 340 341 340 339 339 339 339 338 339 339 335 334 338 340 341 341 340 340 338 337 337 336 337 335 335 334 333 333 332 331 330 329 329 329 329 329 329 327 327 327 326 326 326 327 327 327 327 326 326 327 327 327 327 327 327 326 327 326 326 327 326 322 322
334 341 340 340 342 342 340 341 339 337 338 335 332 328 327 330 329 330 331 330 326 326 327 328 336 338 344 351 343 334 336 340 338 339 340 340 340 340 340 339 339 339 338 338 336 335 337 340 340 341 340 340 339 338 337 336 337 335 335 334 333 333 332 331 329 328 329 327 328 329 328 326 327 328 325 326 326 326 327 326 326 326 326 327 326 326 326 326 326 326 326 326 325 325 326 323 321
333 341 342 341 342 342 341 340 340 340 339 334 333 330 326 330 333 330 328 330 326 325 324 326 338 340 340 345 346 344 339 338 339 339 340 339 340 339 339 339 339 339 338 337 336 335 336 339 341 341 341 340 339 338 337 337 336 336 335 334 333 332 332 331 328 328 329 327 328 329 327 326 327 328 326 326 326 325 327 326 325 326 326 327 326 326 326 325 325 325 325 325 325 324 324 323 322
331 339 339 341 341 341 340 340 340 341 338 334 335 331 327 329 330 329 326 329 328 324 324 327 334 333 337 343 348 347 337 337 340 339 339 339 339 339 339 339 338 338 337 336 335 335 336 340 341 340 340 340 339 339 338 337 336 335 334 334 333 332 332 331 328 327 330 329 328 328 327 326 326 328 326 324 325 325 326 325 325 326 326 326 327 326 326 326 325 325 324 324 324 323 322 321 320
332 337 338 339 338 337 338 339 340 340 338 335 334 327 327 329 325 327 327 327 326 322 327 333 328 328 339 341 337 336 335 339 340 339 339 339 338 339 338 337 337 336 336 336 335 336 337 340 340 340 340 339 339 339 338 337 336 335 334 333 332 331 331 331 330 326 328 330 328 326 327 327 326 327 326 324 324 325 325 325 324 325 326 326 326 326 326 326 325 325 325 325 325 323 321 319 317
332 336 337 337 335 335 336 338 339 339 338 335 332 325 327 333 326 324 323 324 327 325 329 336 332 335 342 338 331 332 337 339 339 339 338 338 338 337 337 337 337 336 336 336 336 337 338 339 340 340 340 339 339 338 338 337 336 335 334 333 329 327 328 330 330 326 326 330 329 326 327 328 326 325 326 325 324 325 326 325 324 324 325 325 325 325 325 326 326 325 325 325 326 324 323 321 318
331 334 334 334 333 332 333 334 335 337 338 336 332 329 331 335 331 325 321 324 331 329 330 338 338 338 337 332 331 334 338 339 338 338 337 337 336 336 336 337 337 337 336 337 336 337 338 338 338 339 339 340 339 338 338 336 336 336 334 330 326 324 325 328 328 324 325 329 329 325 326 329 326 325 325 325 324 324 325 324 324 324 323 325 325 325 324 325 325 325 325 325 326 325 324 323 321
328 331 332 331 330 330 331 332 334 334 335 337 336 333 332 333 329 324 323 326 331 330 331 339 342 341 338 333 333 336 338 338 338 338 337 337 336 335 336 336 337 336 337 337 337 337 338 338 338 338 339 339 339 338 337 336 336 334 329 325 325 324 324 325 324 324 324 327 328 325 326 328 327 326 326 326 324 323 324 323 324 323 323 324 324 324 324 325 325 325 325 325 325 325 325 325 324
326 329 331 329 327 329 331 331 332 332 333 337 337 333 333 332 327 323 325 327 331 331 329 336 341 344 345 336 333 336 338 338 338 338 337 337 336 336 335 336 336 336 337 336 337 337 337 337 338 337 338 339 339 338 336 336 334 329 324 323 325 324 323 324 323 324 325 326 328 327 326 326 325 325 325 325 324 324 324 324 324 323 322 322 321 322 324 325 325 325 324 323 324 325 324 324 323
327 327 328 327 327 328 329 331 331 331 332 334 335 333 335 334 328 324 325 327 331 331 328 331 335 341 343 336 334 336 337 337 338 338 338 337 337 336 336 335 335 336 336 336 336 337 337 337 337 337 337 338 338 338 337 335 330 324 323 325 325 324 323 324 324 325 326 326 328 329 327 326 326 325 323 323 323 324 324 324 324 323 322 321 320 320 323 325 325 326 323 322 324 324 324 324 323
322 325 326 326 327 326 326 330 331 332 333 334 335 334 334 333 330 327 326 327 330 331 329 326 331 344 342 334 335 336 337 338 338 338 338 337 337 336 336 335 335 335 335 336 336 336 336 337 337 337 336 337 337 338 337 332 326 324 325 325 325 325 324 324 324 324 326 327 328 328 328 327 327 326 324 323 324 325 325 325 325 324 324 323 322 321 322 324 324 325 323 322 324 324 322 323 323
317 322 324 324 325 326 326 327 329 332 334 334 335 335 332 333 334 330 326 326 327 326 325 325 335 344 338 332 335 336 338 339 338 338 338 338 337 337 336 335 335 334 335 335 335 335 336 336 336 336 336 336 336 337 335 328 324 324 325 325 324 325 325 325 325 324 325 326 328 328 327 327 327 327 326 326 325 326 327 327 327 326 325 324 324 323 323 323 323 323 322 321 323 322 321 321 321
315 317 320 323 324 324 326 325 326 330 332 332 333 335 333 333 334 330 327 327 327 324 325 336 343 338 333 335 336 336 337 337 338 338 338 338 337 337 336 335 335 334 334 334 334 334 335 335 335 335 336 335 336 337 332 325 324 325 325 325 324 323 324 325 324 323 324 325 327 328 328 328 327 327 327 327 327 327 327 327 327 327 327 326 325 324 324 324 324 324 323 322 322 322 322 321 321
314 313 315 320 323 323 324 323 325 327 328 329 332 335 334 333 332 331 330 330 330 325 327 345 349 338 336 338 336 335 336 336 337 337 337 338 337 337 336 335 335 334 334 333 333 333 334 334 333 333 334 334 336 335 328 324 326 327 327 327 325 324 323 323 322 322 322 323 325 326 327 328 328 327 326 326 327 327 326 326 327 327 327 326 326 325 325 325 325 324 324 324 324 324 324 323 323
314 312 312 316 320 322 324 324 324 324 325 328 332 333 333 333 332 333 332 329 329 326 331 344 347 344 339 337 336 336 336 335 336 336 337 337 337 337 337 336 336 335 334 333 332 332 332 333 333 332 332 333 335 333 326 325 328 329 329 329 329 328 325 324 323 322 322 322 324 326 327 327 327 326 325 324 325 325 325 325 325 326 326 325 325 326 326 325 325 324 324 325 325 326 325 325 324
315 314 313 315 317 320 323 324 324 323 323 327 331 331 331 333 334 334 331 329 330 333 343 345 343 345 340 335 336 335 335 336 335 336 336 336 337 338 337 337 337 336 335 334 333 332 332 332 331 331 331 331 332 330 325 325 329 330 331 331 331 331 330 327 324 323 323 322 323 325 326 327 327 327 325 323 323 323 323 324 325 325 325 325 326 326 326 325 325 325 325 326 326 327 327 326 325
314 313 313 314 315 318 320 322 324 324 323 324 327 328 330 333 333 333 329 330 330 334 346 349 345 343 338 335 335 335 336 335 334 335 336 336 336 337 337 337 337 337 336 336 335 334 333 332 331 330 329 329 329 327 323 325 328 330 331 331 331 332 332 331 327 324 324 324 324 324 325 327 327 327 326 325 324 323 323 323 325 326 325 324 325 326 326 326 326 326 326 327 327 327 327 327 326
313 313 313 312 314 317 318 320 322 324 325 323 325 327 329 330 330 330 328 328 328 328 335 342 347 345 338 337 336 335 335 333 334 335 335 336 336 336 337 337 337 337 337 337 336 335 334 333 332 330 329 328 327 325 323 324 327 330 331 330 331 332 332 332 331 328 326 326 326 326 326 326 327 327 326 325 325 324 324 324 324 325 325 323 323 325 327 327 327 328 328 328 328 327 327 327 327
313 313 314 313 314 315 317 320 322 324 326 324 326 329 329 327 326 326 326 326 327 327 326 330 338 343 340 338 337 336 335 334 334 334 335 336 336 336 336 336 337 337 337 337 337 336 335 334 333 331 329 328 326 324 322 322 325 328 329 330 330 331 332 333 333 332 330 329 329 328 328 327 327 326 326 326 326 326 326 325 324 324 325 324 323 324 326 327 327 328 328 328 328 328 328 328 328
316 315 314 314 314 313 315 322 322 323 325 324 326 331 330 326 326 325 324 325 327 326 325 324 329 337 340 338 337 337 335 334 333 333 335 335 335 336 336 336 337 337 337 337 337 337 336 336 334 332 330 328 326 324 321 321 323 327 328 329 330 330 331 332 333 334 333 332 331 330 330 330 330 328 328 327 327 327 327 326 325 324 325 325 323 323 325 327 327 328 328 328 328 328 328 328 328
319 317 315 314 313 312 314 320 322 323 325 324 327 331 329 326 327 326 325 325 325 324 324 324 324 331 338 339 338 337 336 334 333 333 334 334 335 335 335 336 336 337 337 337 337 337 337 337 336 334 332 329 327 324 323 323 324 326 328 328 329 329 329 330 332 333 334 334 334 333 333 332 332 331 330 329 328 328 328 327 326 325 324 325 324 323 326 327 327 328 328 328 329 329 329 328 328
316 317 316 313 312 311 311 316 321 322 324 326 327 330 329 327 328 327 325 325 325 324 323 323 323 325 332 337 337 337 337 335 334 333 333 334 334 334 335 335 335 336 336 337 337 337 337 337 336 336 335 333 330 328 326 326 327 327 328 329 328 329 329 329 331 332 333 334 335 335 334 334 333 333 332 331 330 330 329 328 327 326 326 326 325 324 325 327 327 327 327 328 329 329 329 329 328
314 315 316 315 314 313 311 313 319 322 323 325 327 328 328 329 331 329 326 325 325 324 324 323 322 323 328 334 336 336 337 337 336 334 333 334 333 334 334 334 335 335 336 336 337 337 338 337 337 336 336 336 334 332 331 329 329 329 330 330 331 331 331 331 331 331 332 332 334 335 335 335 334 334 334 333 332 331 330 329 328 328 327 327 326 325 325 326 327 327 328 328 328 329 330 329 329
314 314 315 315 315 315 313 312 319 324 323 324 327 329 329 328 331 331 327 325 326 325 324 325 325 325 325 330 334 335 335 336 336 334 333 334 334 334 334 334 335 335 335 336 336 337 337 337 337 337 337 337 336 336 335 334 333 333 334 334 334 334 334 334 333 332 332 332 333 335 335 335 335 335 335 334 333 332 331 330 329 329 328 328 327 327 327 327 327 328 328 328 328 329 329 329 329
314 312 311 314 315 317 317 316 321 324 324 325 327 328 329 328 329 330 328 327 327 326 324 326 329 328 325 326 329 332 335 335 333 333 333 334 333 334 334 334 334 334 335 335 335 336 336 337 337 337 337 337 337 337 336 337 336 336 337 336 336 336 335 335 334 334 333 333 332 333 334 334 335 335 336 336 334 333 332 332 330 329 329 329 328 328 328 328 329 328 328 328 328 328 328 328 328
311 311 310 315 318 319 319 319 320 320 323 327 325 326 328 328 328 328 327 327 329 330 327 327 328 327 327 326 326 327 331 332 331 332 332 333 333 333 334 334 333 334 334 334 335 335 335 336 336 337 337 337 337 337 337 337 337 337 337 337 337 336 336 336 336 335 334 333 333 333 333 333 333 334 335 336 335 334 333 333 332 331 330 330 330 330 330 330 329 329 328 327 327 328 328 328 327
310 312 313 315 318 320 320 320 319 316 321 327 326 326 327 326 327 328 327 327 327 328 328 327 326 325 327 327 327 326 326 326 328 331 331 330 331 332 333 333 333 333 333 333 334 334 335 335 335 336 336 336 337 336 336 336 336 337 337 337 337 336 336 336 336 336 335 334 334 333 333 333 333 333 334 334 335 335 334 334 333 333 332 331 331 330 330 330 329 329 328 327 327 327 327 327 326
308 311 313 314 317 318 318 318 319 314 317 326 328 328 328 326 326 327 326 326 325 326 327 328 327 326 325 327 329 330 329 327 327 326 326 327 328 329 331 333 333 333 333 333 333 334 334 333 334 334 335 336 336 336 336 336 336 336 336 336 336 336 336 336 336 335 335 335 334 334 334 334 334 334 334 334 334 334 334 334 334 333 333 332 331 331 330 329 329 328 327 327 326 326 326 326 326
308 309 310 312 315 318 318 317 316 314 314 319 323 324 324 325 327 326 325 325 325 326 326 327 328 327 326 327 329 330 331 331 330 327 324 323 324 326 329 331 332 333 332 333 333 333 333 333 333 333 334 334 335 336 336 336 336 335 336 336 336 336 335 335 336 335 335 335 335 335 334 334 335 334 334 334 334 334 334 334 334 333 332 332 331 331 330 329 329 328 327 327 327 326 326 326 326
308 308 309 309 311 315 317 316 314 316 317 315 317 320 319 322 327 327 326 325 325 326 326 326 327 327 328 328 329 329 330 330 331 330 326 323 322 323 327 330 331 332 332 333 333 333 333 333 333 333 333 334 334 334 335 335 335 335 335 335 335 335 335 335 335 335 335 334 334 334 334 334 334 334 334 334 334 334 334 333 333 333 332 332 331 331 330 330 329 328 328 328 327 326 326 326 326
308 307 307 306 309 312 314 315 313 317 320 314 314 321 321 322 326 326 327 327 326 325 326 325 325 326 328 328 329 329 329 329 329 330 330 328 323 320 324 328 330 331 332 332 333 333 333 333 333 333 332 333 333 333 334 334 334 335 334 334 334 334 334 334 334 333 333 333 333 333 333 333 333 333 333 333 333 333 333 333 333 333 332 332 331 331 330 330 329 329 329 328 327 327 327 326 326
309 307 307 304 305 310 311 311 312 316 318 313 313 319 321 322 323 322 325 328 327 326 326 326 325 325 326 326 327 327 328 329 329 328 330 331 328 323 322 324 328 330 331 332 332 332 333 333 332 333 333 332 333 333 333 333 333 334 334 334 334 334 333 333 333 333 332 332 332 332 332 332 332 332 332 332 333 333 333 332 332 332 331 331 331 330 330 330 330 330 329 329 328 328 327 326 326
312 309 309 307 304 307 308 308 311 314 313 310 313 318 319 320 320 319 322 326 326 326 326 327 326 324 324 324 323 325 326 326 328 328 327 328 327 325 323 323 325 328 329 330 332 332 332 333 333 332 333 333 332 333 332 333 333 333 333 333 333 333 333 333 332 332 332 332 332 332 331 331 331 331 331 332 332 332 332 331 331 331 331 330 330 330 330 330 330 330 329 329 328 328 327 327 326
312 309 310 311 307 305 306 307 309 310 309 308 311 316 317 317 321 321 321 323 323 323 324 325 326 325 324 324 323 323 323 323 324 325 325 325 323 322 322 323 324 325 328 329 330 332 332 332 333 333 333 333 333 333 333 332 333 333 333 333 333 333 333 332 332 332 332 332 331 331 331 331 331 331 331 331 331 331 331 331 331 330 330 330 330 330 330 330 330 330 329 328 328 328 327 327 326
312 310 310 311 310 308 305 305 307 308 308 307 306 311 314 314 319 321 319 321 321 320 321 320 322 324 324 325 324 324 323 323 323 322 322 323 320 320 321 321 322 324 327 328 329 331 332 332 332 333 333 333 333 333 333 333 332 332 332 332 332 332 332 332 332 331 331 331 331 331 331 331 331 331 330 330 330 331 331 330 330 330 330 330 330 330 330 330 330 329 329 328 328 328 327 327 327
312 312 311 311 312 312 309 307 308 306 307 307 304 307 311 310 316 321 320 323 323 318 318 317 317 320 321 323 324 324 323 323 324 322 321 320 318 318 319 319 320 322 324 327 329 330 331 332 332 332 333 333 333 333 333 333 333 333 332 332 333 332 332 332 331 331 331 331 330 330 330 330 330 330 330 330 330 330 330 330 330 329 330 330 330 330 330 330 329 329 329 328 328 328 328 327 327
312 313 313 313 313 313 312 311 309 306 308 310 305 304 307 307 312 320 320 320 320 318 318 317 317 317 317 319 321 322 322 323 323 324 323 321 319 319 317 317 318 319 321 324 327 329 331 331 331 332 332 332 333 333 333 333 333 333 332 332 333 332 332 332 331 331 331 330 330 330 330 330 330 330 330 330 330 330 329 329 329 329 329 329 329 329 329 329 329 329 328 328 328 328 328 327 327
312 313 313 313 312 312 313 313 310 308 310 311 304 301 304 304 306 311 311 311 315 319 319 319 318 317 316 317 318 320 322 323 323 324 324 323 323 321 318 316 316 317 319 321 323 326 329 330 331 331 332 332 332 332 333 333 333 333 333 332 332 332 332 332 331 331 331 330 330 330 329 329 329 330 329 329 329 329 329 329 329 329 329 329 329 329 329 329 329 328 328 328 328 328 328 328 327
311 312 312 312 312 313 314 314 314 313 312 310 304 301 305 307 305 305 303 304 308 311 315 319 320 320 319 319 320 322 323 324 323 323 323 324 324 323 318 316 316 316 317 319 320 323 326 328 330 330 331 332 332 332 332 332 332 333 333 332 332 332 332 332 331 331 331 330 330 330 330 330 329 329 329 329 329 329 329 329 328 329 329 329 328 328 328 328 328 328 328 328 328 328 328 328 327
311 312 313 313 312 313 313 313 314 313 312 310 306 305 311 312 309 308 307 309 311 308 309 312 315 316 317 317 317 317 317 317 317 318 318 319 319 318 316 316 317 317 317 318 318 320 323 325 328 329 330 331 332 332 332 332 332 332 333 332 332 332 332 332 331 331 331 330 330 330 330 330 330 329 329 329 329 329 329 328 328 328 328 328 328 328 328 328 328 328 328 328 328 328 327 327 328
310 311 313 313 310 311 313 312 313 311 311 311 310 312 315 313 310 310 311 315 313 308 307 307 308 309 310 311 310 310 310 310 311 312 312 312 311 310 311 312 314 314 315 316 317 319 321 323 325 327 328 330 331 332 332 332 332 332 333 333 332 332 332 332 331 331 331 331 331 331 331 330 330 330 330 329 329 329 329 328 329 328 328 328 328 328 328 328 327 327 327 327 327 327 327 327 327
310 311 312 311 308 309 311 311 311 310 311 312 312 314 314 312 312 309 308 311 308 305 306 306 306 307 307 308 308 307 308 308 309 309 309 310 308 307 307 308 308 309 311 313 314 316 318 321 323 325 326 328 329 330 331 332 332 332 332 332 332 332 332 332 332 332 332 331 331 331 331 330 330 330 330 330 330 329 329 329 328 328 328 328 328 328 328 327 327 327 327 327 327 327 327 327 326
310 311 309 308 308 309 310 310 311 311 312 313 311 312 312 313 315 310 307 309 307 306 307 306 306 306 306 307 307 307 307 307 307 308 308 308 307 306 306 306 306 307 308 309 310 312 314 317 319 322 324 325 327 328 330 331 331 331 332 332 332 332 332 332 332 332 332 331 331 331 331 330 330 330 330 330 330 329 329 329 329 329 328 328 328 328 328 327 327 327 327 327 327 327 326 326 326
309 309 307 308 310 310 310 311 311 310 311 313 312 311 313 314 312 310 309 309 307 307 306 305 306 306 306 306 306 307 307 307 307 307 308 308 307 306 305 305 305 306 306 307 308 309 310 312 315 317 320 322 324 326 327 328 330 331 331 331 332 332 332 332 332 332 332 331 331 330 331 331 330 331 330 330 330 329 329 329 329 328 328 328 328 328 328 328 327 327 327 327 327 327 326 325 325
307 307 307 308 310 310 310 310 310 309 310 312 312 311 313 313 309 308 309 309 307 307 305 305 305 305 305 306 306 307 307 307 307 307 307 307 306 305 305 305 305 305 305 306 307 308 308 310 311 313 315 317 320 322 323 325 327 329 330 331 331 331 332 332 332 331 331 331 331 331 331 331 330 331 330 330 330 330 329 329 328 328 328 328 328 328 328 328 327 327 327 327 327 326 326 325 325
306 307 306 306 307 308 309 308 309 310 309 310 311 309 310 314 311 308 309 308 306 306 304 303 304 304 305 305 306 306 306 306 307 307 307 307 306 305 304 304 304 304 305 305 306 307 308 309 310 311 312 314 316 318 319 322 324 325 327 328 330 331 331 331 331 331 331 331 331 331 331 331 330 330 330 330 330 330 329 329 328 328 328 328 328 328 328 328 327 327 327 327 327 326 326 325 325
306 306 303 303 305 306 306 306 307 307 306 307 308 307 308 312 313 310 309 306 303 303 303 303 303 303 304 304 305 306 305 305 306 306 306 306 305 304 303 303 303 303 304 305 305 306 307 308 309 310 311 312 313 315 316 318 320 322 324 325 327 329 329 330 330 331 331 331 331 331 331 330 330 330 329 329 329 329 329 329 328 328 328 328 328 328 328 328 327 327 327 326 326 326 325 325 325
Wind_Speed
20 19 15 14 12 5 1 3 1 2 2 1 3 1 4 4 2 3 5 4 2 3 3 2 4 6 4 3 7 5 4 7 6 5 4 4 5 21 26 14 22 37 37 37 34 32 31 29 27 26 26 25 26 24 23 21 21 19 17 15 14 17 21 22 17 12 14 16 15 14 13 14 16 14 13 13 13 12 12 12 12 12 11 11 10 9 9 9 8 9 10 11 12 13 13 12 13
21 18 15 12 7 2 1 3 2 3 2 3 3 3 4 2 2 5 8 6 5 3 1 2 4 2 4 3 4 3 2 3 4 4 2 3 11 21 22 14 27 38 38 37 35 33 31 30 27 26 26 25 26 25 23 22 21 20 18 15 15 16 18 23 22 15 12 14 15 13 12 14 15 13 11 12 11 11 11 10 10 10 10 9 9 8 8 8 9 8 8 10 12 13 12 12 12
21 17 15 10 3 2 1 2 1 1 1 5 4 4 2 1 6 8 10 8 7 3 2 3 3 2 4 3 2 3 3 2 3 2 0 9 12 19 20 16 31 39 38 37 35 34 32 30 28 26 26 26 27 25 23 22 21 20 18 16 16 17 16 19 23 21 15 14 14 13 13 13 13 11 9 10 10 10 10 9 10 9 9 8 7 8 8 9 10 9 8 9 11 12 11 11 10
18 15 14 6 1 2 3 1 2 3 3 4 3 5 3 5 8 9 9 6 5 3 3 3 1 0 2 2 2 1 3 3 3 4 4 10 11 20 22 21 34 37 37 37 35 34 33 31 28 26 26 26 27 25 23 22 21 19 18 17 17 17 16 16 21 23 19 16 14 12 12 11 13 12 9 10 10 9 9 9 9 9 9 8 7 7 7 9 10 10 9 9 10 11 11 10 10
17 13 10 1 2 1 3 1 2 3 6 4 2 5 5 7 7 8 8 6 5 4 2 2 1 1 1 2 2 1 3 1 3 6 7 10 15 23 23 27 37 35 37 36 34 35 32 31 28 27 26 27 27 25 23 22 21 20 19 18 17 16 15 15 18 20 18 17 16 15 13 10 12 13 10 11 10 9 8 8 9 9 9 9 8 8 8 9 10 10 9 9 10 11 10 9 10
19 10 5 1 1 1 3 1 2 4 6 5 4 6 6 6 6 7 7 6 3 4 2 1 1 1 0 2 1 2 3 1 4 7 10 13 19 24 25 32 36 35 37 35 35 34 32 30 28 27 26 27 27 25 23 22 20 20 19 18 17 15 15 16 17 16 15 15 16 16 15 13 13 13 12 11 9 7 8 7 8 8 9 10 10 9 9 10 10 10 10 10 10 9 10 10 11
17 7 3 2 1 1 2 4 5 5 5 6 6 6 6 6 5 3 5 2 1 2 2 2 2 3 2 2 1 2 0 3 3 6 13 18 23 26 29 35 35 35 35 35 35 34 32 30 28 26 27 27 27 25 23 22 20 20 19 18 17 16 16 16 17 16 14 14 15 15 15 15 14 14 13 11 8 8 8 7 8 9 9 10 11 10 10 11 10 10 10 11 9 9 10 10 11
12 3 1 2 1 2 2 4 5 5 4 5 5 6 6 5 3 1 3 1 1 4 2 2 1 2 4 1 1 2 1 3 2 6 17 22 25 28 31 35 35 35 34 36 35 33 33 30 28 27 27 27 26 25 23 22 20 20 19 18 17 16 16 16 17 16 15 14 14 15 15 15 14 14 14 11 10 10 9 8 9 10 10 10 10 10 10 11 10 10 10 10 10 9 11 11 11
9 2 1 2 1 2 1 3 5 4 5 5 5 6 4 3 3 2 3 3 2 3 3 4 4 1 4 1 2 3 2 2 4 10 20 24 27 30 33 35 36 35 34 36 35 34 32 30 29 27 27 27 26 24 23 22 20 20 19 18 17 16 15 15 16 16 15 15 14 15 15 15 14 14 14 13 11 10 10 9 10 10 10 10 10 10 10 10 10 10 9 10 10 9 11 11 10
5 2 0 0 1 3 4 4 5 3 4 5 6 8 6 3 3 4 5 6 3 2 4 3 4 2 3 2 3 2 2 4 10 16 21 25 28 31 33 34 35 36 35 35 35 34 33 30 29 28 27 27 26 24 23 22 20 20 19 18 16 16 15 14 15 15 15 15 15 15 15 15 14 14 14 13 12 11 10 10 10 11 10 10 11 10 10 10 10 9 9 9 9 9 10 11 11
1 2 2 1 1 4 5 4 7 5 4 4 6 8 7 5 3 4 5 5 4 3 3 4 3 3 2 2 2 2 1 10 16 20 23 26 28 30 32 32 34 35 34 35 35 34 33 31 29 28 28 27 26 25 24 22 21 20 19 17 15 15 15 14 15 15 15 16 15 15 16 16 15 15 15 14 13 12 11 10 10 11 10 10 11 10 10 10 10 9 9 9 9 9 9 11 12
3 2 2 2 3 4 4 5 8 7 5 4 7 6 5 6 4 4 5 5 5 5 5 5 4 5 3 4 3 2 4 14 17 22 25 27 28 29 30 30 32 33 33 34 34 34 33 31 29 28 28 27 26 25 24 23 22 21 19 17 15 15 15 14 14 14 15 16 15 15 16 15 15 15 15 14 14 14 12 11 10 10 11 10 10 10 10 10 10 9 9 9 9 9 9 12 13
4 3 3 3 3 4 4 5 7 7 6 5 7 4 3 6 6 8 7 6 6 5 7 8 4 4 4 3 3 2 5 14 17 23 27 27 27 27 29 29 30 31 32 33 33 33 33 32 30 29 28 28 27 25 25 23 23 21 19 17 16 16 15 15 14 14 16 16 15 14 15 15 14 14 15 15 15 15 13 13 12 10 10 10 10 10 10 10 10 9 9 9 9 10 9 11 13
4 4 4 3 1 3 4 5 5 6 9 7 5 2 3 4 6 7 6 6 8 7 5 6 6 3 2 1 3 3 7 14 18 24 27 27 26 26 27 28 29 29 30 31 32 32 33 32 31 30 29 28 27 26 25 24 23 21 19 17 16 16 16 16 15 16 16 16 15 14 14 15 15 15 16 16 15 16 14 14 14 12 11 10 10 10 10 9 10 10 10 9 9 10 9 11 13
3 3 3 3 3 4 5 6 6 7 8 5 4 4 4 5 4 5 7 9 8 6 2 3 6 3 3 5 5 4 11 19 22 25 26 26 25 25 26 26 27 28 28 30 31 31 32 32 31 30 30 29 28 27 26 25 23 21 19 18 17 16 17 17 16 18 17 16 16 15 15 15 15 15 15 16 15 14 14 15 15 14 12 12 11 10 10 9 10 9 9 9 9 9 9 10 13
2 2 2 4 6 7 6 6 6 7 6 2 2 2 2 6 2 4 6 6 2 2 3 3 4 1 4 7 5 6 19 24 24 26 25 24 23 23 24 25 25 26 27 29 30 30 31 32 32 31 31 30 29 28 26 25 24 21 20 19 18 17 18 18 16 18 20 17 17 17 16 15 16 15 14 15 15 14 14 15 16 16 14 13 12 12 11 10 11 9 9 10 10 9 9 10 12
2 2 4 6 9 10 8 7 8 5 3 1 1 2 2 5 2 2 3 3 2 3 3 3 2 2 4 4 3 14 27 26 27 26 24 23 22 22 22 24 24 25 27 28 30 30 31 31 32 32 31 30 29 28 27 26 24 23 22 20 19 18 18 19 18 18 20 18 18 19 17 17 17 16 15 15 16 16 16 15 16 18 17 14 14 14 13 12 12 11 10 10 10 10 10 10 11
2 3 6 9 11 11 8 9 8 3 3 3 3 4 4 2 4 3 2 1 0 1 2 1 1 1 1 2 5 21 29 28 29 27 23 21 20 21 21 24 26 26 28 28 30 31 31 32 32 32 32 31 30 29 28 26 25 24 23 21 19 19 18 20 18 17 21 20 18 21 19 17 18 17 17 16 16 18 18 16 15 17 17 16 16 16 15 14 13 12 11 11 11 11 11 12 12
5 4 6 11 11 8 7 9 7 5 6 4 3 4 4 2 2 1 1 4 1 3 4 3 2 4 2 4 13 23 27 28 28 26 24 22 22 22 22 23 26 28 29 30 30 31 32 32 32 33 33 32 31 29 28 27 27 25 23 22 20 20 19 19 19 18 21 21 19 22 22 20 19 18 18 17 16 17 17 17 16 16 16 16 17 16 14 14 15 14 13 12 12 13 13 14 14
5 4 8 12 9 5 6 9 10 8 5 2 5 3 1 3 2 1 1 4 2 5 6 2 6 8 3 6 13 20 23 24 25 24 23 23 24 25 25 25 28 30 32 31 31 31 32 33 32 33 33 33 32 30 29 28 27 26 24 23 22 21 20 19 20 20 20 21 20 21 23 22 20 19 19 19 17 17 17 17 17 17 17 17 17 17 15 15 15 16 15 13 13 14 15 16 17
2 6 10 9 5 7 8 7 8 8 6 4 5 4 5 3 2 2 2 2 4 5 8 8 8 6 7 8 11 16 18 19 21 22 21 21 22 24 27 27 28 29 29 28 29 31 32 33 33 33 33 34 33 32 31 30 28 27 26 25 23 22 22 21 21 22 21 22 22 21 22 21 20 19 19 19 18 18 18 18 18 18 17 17 16 17 18 17 16 17 17 15 15 16 16 17 18
4 8 12 10 6 8 7 5 7 7 5 5 5 8 7 1 1 3 6 4 6 5 5 7 5 4 9 9 11 13 14 15 17 18 19 21 22 22 24 24 24 24 26 28 30 31 33 33 33 33 33 34 34 34 32 31 30 29 28 27 26 24 24 24 23 24 24 23 23 23 22 22 21 20 19 20 19 19 19 19 19 18 18 18 16 16 17 18 19 19 19 17 17 18 18 18 19
6 9 10 12 10 8 4 4 7 5 6 7 6 5 3 3 5 3 7 7 7 4 1 3 5 7 11 9 9 12 14 15 16 20 22 23 24 24 25 25 25 26 28 30 30 31 32 33 33 33 34 34 35 34 33 32 32 31 30 29 28 27 26 26 25 25 25 25 24 24 24 23 22 21 21 21 21 21 21 21 20 19 19 19 17 17 17 17 18 19 19 18 18 19 20 20 20
8 10 11 11 11 10 8 7 6 5 8 9 5 2 4 10 7 1 4 8 8 3 2 0 3 8 12 11 11 13 15 18 20 24 27 26 27 27 27 26 27 28 28 29 30 31 33 34 34 34 34 35 35 35 34 33 34 33 32 31 30 29 28 28 27 26 26 26 25 25 25 24 24 23 23 23 23 23 23 22 22 22 21 20 19 18 19 18 18 18 18 18 19 19 20 21 22
11 12 11 9 10 10 8 9 11 10 8 4 4 6 11 11 4 2 5 7 8 4 1 2 5 6 9 12 14 12 13 15 18 21 23 23 24 24 24 25 25 26 27 29 31 31 33 34 34 35 35 35 35 35 35 34 34 34 33 33 31 30 29 28 27 27 27 27 27 27 27 26 26 25 25 25 25 25 25 24 24 24 23 22 21 21 21 20 19 19 18 19 19 19 20 21 22
8 9 9 9 12 10 7 9 12 13 9 2 5 9 11 6 1 7 10 10 9 3 1 2 6 7 8 11 14 14 13 13 15 18 20 21 21 22 23 24 24 26 28 29 30 31 33 34 35 35 35 36 36 36 35 34 34 34 34 34 32 31 30 29 28 28 28 28 28 28 28 29 28 26 25 25 25 26 26 25 26 25 24 24 23 22 22 21 20 19 19 20 20 20 21 21 21
5 8 8 9 12 9 9 11 9 10 9 7 9 11 9 3 4 9 10 8 4 4 3 3 5 7 8 9 11 13 13 14 16 16 17 17 20 23 25 26 26 27 28 27 29 31 32 34 35 36 36 37 37 36 36 35 34 34 34 34 33 32 31 30 30 31 30 29 29 28 28 29 29 28 27 26 25 26 26 27 27 27 26 25 24 23 22 21 21 21 21 21 20 21 22 21 22
8 10 10 10 10 8 10 12 9 6 6 9 11 13 8 3 7 13 8 5 5 5 3 4 5 6 6 6 7 9 10 14 16 15 16 19 23 26 27 28 29 28 28 28 29 29 31 33 35 36 36 37 37 36 36 36 35 34 33 34 34 33 32 31 32 32 31 31 30 29 29 29 30 29 28 28 26 26 26 27 27 28 27 26 24 24 23 22 22 22 23 22 22 23 23 23 23
10 8 10 12 10 10 11 10 10 7 6 6 6 10 11 10 14 14 10 8 5 4 5 4 5 5 5 5 5 6 7 9 13 16 21 25 26 28 29 30 30 29 29 30 29 28 30 33 34 35 35 37 38 37 37 36 36 35 34 34 34 34 33 33 33 33 32 31 31 31 30 30 31 30 30 29 28 27 27 27 28 28 28 26 25 24 23 23 23 24 23 23 24 24 25 25 24
8 8 8 9 8 11 10 8 9 10 9 5 6 9 13 17 19 15 12 11 8 10 12 9 7 5 5 6 5 7 6 6 12 19 24 24 24 26 28 30 32 32 30 30 29 30 31 31 33 34 35 37 37 38 37 37 37 36 35 34 34 34 34 34 34 34 33 32 33 32 32 31 31 31 30 30 29 29 28 29 29 29 28 26 25 24 24 24 24 24 23 23 24 25 26 25 25
4 6 6 5 6 10 7 7 9 11 11 7 8 11 13 15 14 13 14 12 9 13 15 12 10 6 5 6 6 8 8 9 15 19 20 20 22 24 26 28 31 32 31 30 32 33 32 30 31 34 35 37 37 38 38 38 37 36 35 34 33 34 34 34 35 35 34 34 34 34 34 33 32 32 31 31 30 30 29 29 29 29 28 25 25 25 24 24 25 25 23 23 25 26 27 26 25
2 4 5 5 8 9 5 6 10 12 9 9 11 10 12 14 10 9 11 12 13 15 15 13 11 9 7 7 7 8 8 11 15 17 18 20 22 23 26 28 30 33 32 32 33 34 33 31 32 33 34 36 37 38 38 37 36 35 34 33 33 33 33 34 35 36 35 35 35 35 35 34 33 33 32 31 31 31 30 30 28 27 26 25 25 25 25 26 26 26 25 24 26 27 27 27 27
2 4 5 4 7 8 6 6 9 13 9 9 14 12 9 9 9 9 8 11 14 15 16 15 12 10 8 7 7 8 8 9 11 15 20 22 24 26 26 28 30 32 33 33 34 34 34 33 33 33 34 35 37 37 37 36 35 34 34 33 32 33 33 34 35 35 36 36 37 37 36 35 34 33 32 32 32 32 31 29 28 26 25 24 25 25 27 27 26 27 26 25 26 27 28 28 28
4 4 4 4 5 6 6 6 6 12 12 10 14 15 14 8 4 6 8 11 13 13 14 15 12 9 8 7 7 7 8 9 10 13 20 23 25 26 26 27 28 30 32 33 33 33 34 35 34 35 35 34 35 36 36 36 35 34 33 33 33 33 33 34 34 34 35 36 37 38 37 36 36 34 33 32 32 32 31 30 28 26 25 25 25 26 27 27 27 27 28 27 27 27 29 29 28
6 7 6 5 5 5 6 5 4 10 13 12 12 15 19 15 7 5 3 7 11 12 13 13 10 7 6 6 7 7 8 10 11 13 20 24 24 25 25 26 27 30 31 31 32 32 33 34 35 36 36 35 35 35 34 34 34 33 33 33 32 33 34 34 34 34 35 36 37 38 38 38 37 36 35 34 34 34 33 32 31 29 28 27 28 28 28 29 29 29 29 28 27 28 28 28 28
8 8 7 6 5 5 5 4 5 5 9 11 12 14 16 16 11 7 5 3 7 10 9 9 8 7 7 6 5 7 9 10 10 14 21 23 23 25 25 25 26 28 30 30 31 32 33 34 35 36 37 36 35 34 34 33 33 33 33 33 33 35 35 35 35 35 35 36 37 37 37 37 38 37 37 36 36 35 35 34 33 32 31 30 31 31 31 31 30 30 29 28 28 28 28 28 27
7 5 5 4 3 5 4 5 6 3 3 8 12 15 17 15 12 10 8 4 5 7 7 8 9 10 10 8 7 7 8 9 9 14 22 24 24 24 25 25 25 26 28 30 32 35 36 35 35 36 37 36 36 36 36 35 35 35 35 35 36 36 35 34 35 35 36 36 36 35 35 36 36 37 37 37 37 37 36 35 34 34 33 32 33 33 32 31 31 30 29 28 27 27 27 26 25
5 2 3 3 2 4 4 5 5 4 1 5 9 14 17 16 12 7 7 7 7 7 8 9 10 10 10 12 15 11 7 6 6 10 18 22 22 21 23 25 25 28 31 33 36 38 37 35 36 37 36 37 40 39 38 38 39 38 37 36 35 34 34 34 35 35 36 36 35 35 35 35 36 36 37 37 37 37 37 36 35 35 34 34 34 33 32 32 31 30 29 27 26 26 26 23 21
4 2 2 2 2 2 5 5 5 4 1 3 6 10 13 14 12 9 9 9 7 6 7 8 10 10 9 12 16 13 9 6 6 8 11 17 21 19 21 24 28 31 32 34 37 36 34 35 37 36 37 40 42 42 41 42 42 40 37 35 33 32 32 33 34 34 33 34 35 35 36 36 36 36 37 37 37 37 37 37 36 36 35 35 34 33 32 32 31 30 29 28 26 24 23 22 20
4 4 3 4 1 1 3 3 5 7 2 4 5 6 7 8 8 9 12 11 8 6 7 7 7 9 10 11 12 13 13 12 12 11 9 12 16 18 20 24 29 30 30 32 35 34 34 38 39 38 40 42 42 43 45 43 39 37 36 33 32 30 30 30 31 33 34 34 35 36 37 37 37 37 37 36 37 37 37 37 36 36 35 35 34 33 33 32 32 31 29 28 27 23 21 21 20
3 5 5 4 2 2 4 2 5 8 4 3 4 5 5 5 5 7 7 8 9 9 9 8 7 7 8 8 9 10 13 15 15 16 13 10 11 16 22 25 27 28 29 32 35 35 37 40 42 41 41 41 41 42 44 40 35 33 32 30 29 28 29 29 29 33 36 37 38 39 39 38 37 37 36 36 36 36 36 36 36 35 35 35 35 34 34 33 32 31 30 30 29 27 24 22 20
2 2 4 5 4 4 3 4 5 4 3 4 6 3 5 3 5 6 4 5 8 7 9 12 10 7 6 6 7 8 10 12 13 15 14 9 9 13 18 23 25 27 31 34 35 36 38 40 41 41 40 40 40 40 39 36 35 33 31 30 30 29 28 30 35 39 39 39 40 39 37 37 37 37 36 35 35 36 35 35 35 35 35 35 35 34 33 32 31 31 31 31 30 29 27 24 22
1 1 3 5 4 5 2 2 2 1 3 3 5 0 4 3 3 5 3 6 8 7 7 10 10 8 6 6 7 7 8 9 11 12 11 8 8 9 12 18 23 27 32 35 34 34 37 38 37 38 40 41 40 38 35 35 36 35 35 35 35 32 30 34 41 40 35 34 35 34 34 35 35 35 36 35 35 35 35 35 35 35 35 35 34 34 33 33 32 32 31 31 31 29 28 27 25
2 3 2 3 1 5 5 4 3 2 4 3 3 1 4 4 5 6 4 5 7 7 7 8 8 9 8 7 7 7 8 7 8 10 9 9 9 10 14 19 25 31 33 32 32 33 36 37 37 36 37 38 37 35 34 36 37 37 37 37 36 34 35 39 38 32 28 29 30 30 32 32 33 33 34 34 34 35 35 35 35 34 35 34 34 34 34 33 32 31 31 30 30 29 30 30 28
2 5 4 3 1 3 4 5 4 2 2 4 3 1 2 5 4 4 3 5 6 6 6 7 7 8 9 8 8 7 7 7 7 7 8 10 9 13 20 26 30 33 33 33 33 33 35 37 35 34 34 35 34 32 32 35 38 38 37 35 35 36 39 40 32 25 26 28 28 29 30 30 31 31 32 32 33 34 34 35 34 34 34 34 34 34 34 34 32 32 31 30 30 30 30 30 29
3 6 5 3 1 0 2 3 3 3 2 6 7 2 2 5 3 1 2 3 5 5 6 7 6 7 7 8 8 7 6 6 7 8 7 10 13 16 20 25 27 29 32 33 32 33 34 34 32 32 34 34 33 32 32 35 38 38 36 36 36 37 38 37 31 26 26 26 27 30 30 30 31 30 31 31 31 32 33 33 34 34 35 34 34 35 34 34 33 32 32 31 30 30 30 30 30
2 4 3 2 1 2 2 1 3 4 1 6 9 7 4 4 3 4 3 3 5 5 5 6 6 7 7 7 7 7 7 6 7 8 8 9 16 19 17 18 23 25 26 27 29 31 32 31 31 33 35 34 34 34 33 35 37 39 40 40 40 40 39 35 31 29 29 28 29 30 30 31 30 30 31 30 30 31 31 32 33 34 34 34 34 35 34 34 33 32 31 31 31 31 30 30 30
2 3 2 1 1 2 2 2 3 2 3 7 9 8 7 5 4 2 3 4 3 5 5 7 7 8 8 8 7 7 7 7 6 7 8 8 11 14 13 16 21 22 21 23 27 30 29 29 30 32 34 35 36 36 35 36 37 39 41 41 42 43 40 36 33 33 33 32 32 32 30 29 29 29 30 30 31 31 31 32 32 33 33 34 35 35 35 34 33 32 31 31 32 32 31 30 30
2 1 2 2 0 1 1 1 1 2 4 4 5 6 4 6 6 5 8 8 6 5 5 7 8 8 8 8 8 7 6 7 6 6 7 7 7 8 9 13 16 17 18 22 25 26 28 30 30 31 34 36 36 35 36 38 39 41 42 42 43 43 41 39 37 36 35 33 34 33 31 30 30 31 31 33 34 33 32 32 32 33 33 34 35 34 34 33 32 32 32 32 32 32 32 31 31
1 0 1 2 1 0 2 2 1 1 3 5 1 5 2 5 5 9 12 11 10 10 8 8 8 8 9 8 6 6 7 7 6 6 7 7 7 7 8 12 15 16 20 23 24 24 26 28 29 31 34 34 33 34 35 38 41 43 43 42 43 42 41 40 38 37 36 34 33 33 33 34 34 34 35 36 36 34 33 32 32 33 33 33 33 33 33 33 33 33 32 33 33 33 33 32 32
1 1 1 2 1 0 1 0 1 0 2 4 1 2 3 3 2 5 8 8 7 7 7 7 6 6 6 6 7 7 7 7 6 6 7 7 7 7 9 12 14 17 21 23 24 25 26 27 28 30 32 32 32 34 36 38 41 42 41 41 42 41 41 41 39 39 37 34 33 34 35 36 36 37 38 37 36 34 33 32 32 32 31 32 32 32 32 32 32 32 32 33 33 33 32 32 32
2 1 2 1 1 1 0 1 2 2 2 2 0 1 4 4 3 5 3 2 6 8 8 8 8 8 7 8 8 8 8 8 7 7 7 8 8 9 10 12 14 17 19 19 19 20 23 27 28 30 33 34 34 35 37 39 41 41 40 41 42 42 41 40 39 39 38 37 37 37 38 39 38 38 38 36 36 34 33 32 31 31 31 31 31 31 31 32 32 32 32 32 33 33 32 32 32
3 1 1 1 1 1 0 1 1 3 1 1 2 2 4 2 4 7 7 7 9 10 9 9 9 9 9 8 7 7 7 8 7 6 7 7 8 10 13 14 15 17 20 21 21 20 20 24 25 28 31 33 34 34 36 38 39 38 39 41 42 42 41 41 41 41 41 41 39 39 39 38 38 37 37 37 36 35 34 33 32 31 30 30 31 31 31 31 31 31 32 32 33 33 32 32 32
2 2 3 3 0 2 1 1 1 2 1 1 2 5 4 1 2 6 11 10 9 9 8 8 8 9 8 6 6 7 7 7 7 6 6 6 7 10 14 17 18 18 19 21 23 23 22 23 24 27 30 32 35 36 36 37 37 37 39 41 42 42 42 43 44 44 42 39 38 38 38 37 37 37 37 36 35 34 34 33 32 31 31 31 30 30 30 30 30 30 31 32 32 32 31 31 31
1 2 3 2 2 2 1 1 2 2 2 2 1 4 2 0 1 5 9 8 8 8 9 10 11 9 7 7 7 8 8 7 8 7 7 7 8 10 15 19 22 24 22 20 20 21 22 23 24 26 29 32 34 35 35 36 37 38 39 40 41 42 42 43 43 42 40 37 37 37 37 37 38 37 37 36 35 35 35 34 33 32 32 31 30 29 29 29 30 30 31 31 32 31 31 30 30
3 2 3 2 1 1 1 0 1 1 1 3 2 2 1 2 2 1 3 5 6 8 9 10 10 9 8 7 7 8 8 8 8 8 9 9 10 13 17 19 23 27 27 26 24 22 22 24 25 26 27 29 30 31 31 32 35 37 38 38 39 40 41 42 41 40 38 37 38 37 37 37 37 37 37 36 36 36 36 35 34 33 32 31 29 29 29 29 30 31 31 31 31 31 31 30 30
4 4 5 5 3 2 1 1 1 2 1 2 2 2 3 3 3 4 5 3 4 7 9 8 8 9 9 8 8 8 8 9 9 8 10 11 13 17 20 21 23 26 27 29 29 27 26 24 24 25 26 27 29 30 31 32 34 36 37 38 39 39 40 41 40 39 38 38 38 38 38 37 36 36 36 36 37 37 37 36 35 34 32 31 30 29 29 30 30 31 31 31 31 31 31 30 30
1 3 5 5 4 3 3 2 2 2 1 0 1 3 6 4 4 5 3 2 5 8 9 9 9 10 10 9 9 9 8 9 10 9 10 11 12 17 21 23 24 24 25 27 29 30 30 28 26 25 24 25 27 29 30 32 33 34 36 38 39 39 39 39 38 38 38 39 39 39 39 37 37 37 37 37 38 38 37 37 35 34 32 30 30 30 30 30 31 31 30 31 31 30 30 30 29
Wind_Direction
334 335 341 343 338 353 46 71 62 314 83 243 256 226 253 235 242 276 277 285 285 239 224 210 157 157 130 163 187 180 166 169 174 148 210 263 147 165 167 176 172 166 167 169 169 168 171 171 170 170 169 168 164 162 160 160 159 154 151 152 147 148 152 144 140 145 139 131 131 130 129 127 121 119 119 118 119 119 118 120 122 121 118 115 115 113 116 121 116 108 105 108 112 108 105 106 107
335 333 339 342 344 42 243 80 102 308 47 273 256 186 248 288 258 240 240 233 225 230 300 159 145 127 69 66 126 137 205 203 187 162 260 148 135 163 170 178 169 166 167 167 168 168 172 172 170 171 170 169 166 163 162 162 159 157 153 150 146 145 153 150 145 149 148 137 134 135 135 130 125 126 126 127 131 130 128 130 131 132 130 127 124 121 125 131 134 129 120 117 118 114 113 114 112
335 332 336 341 359 77 60 53 109 170 160 252 255 226 247 255 231 236 232 226 234 213 109 164 148 88 70 42 106 150 230 274 176 166 208 148 145 167 173 176 167 166 166 166 167 169 172 171 171 172 172 171 167 164 164 164 160 158 155 149 147 146 151 156 152 149 152 155 149 146 146 144 143 137 131 135 139 136 138 144 146 148 147 142 138 133 134 141 145 138 130 130 127 120 118 120 119
337 333 332 340 51 42 71 58 165 153 206 229 253 255 226 213 233 253 249 246 259 204 140 164 161 117 113 185 205 128 238 275 181 164 152 171 170 168 172 170 165 165 165 166 167 170 172 170 172 173 173 172 168 166 164 164 161 160 159 151 149 151 154 158 158 154 152 161 166 159 153 158 158 148 144 147 143 140 140 146 152 157 159 159 157 150 143 149 153 144 135 137 134 126 124 125 125
340 332 329 13 107 22 109 128 134 164 218 186 228 260 231 219 237 265 273 272 247 203 159 117 159 275 56 201 189 143 216 240 181 170 156 179 173 165 170 166 163 163 164 167 168 170 172 170 173 174 174 173 169 166 165 164 164 164 161 155 153 156 158 157 157 157 156 159 164 164 163 172 167 157 156 153 146 145 145 145 148 153 163 167 166 162 154 153 157 155 148 140 135 132 133 134 134
345 337 339 87 118 154 128 235 200 219 224 167 211 253 233 223 227 249 287 293 220 204 217 108 174 169 275 268 199 194 209 118 157 181 170 170 169 167 167 163 162 163 165 167 169 171 172 171 173 175 175 174 170 167 165 165 168 168 163 159 158 157 158 156 155 158 160 159 159 160 165 171 167 164 163 157 151 152 152 151 150 149 157 163 160 160 158 157 157 157 158 152 143 141 142 142 144
348 336 357 63 358 51 142 225 221 236 231 181 207 240 229 232 223 243 312 327 111 258 212 199 168 125 235 288 221 226 254 158 151 193 180 166 167 167 164 163 163 164 166 169 171 173 172 172 173 174 175 174 171 168 167 167 171 171 165 162 159 160 160 158 159 162 162 161 161 158 161 165 165 165 164 163 159 156 152 149 152 149 151 155 158 159 158 159 159 157 162 161 155 157 156 153 154
358 323 356 94 308 5 157 240 238 225 234 219 225 238 231 241 201 170 316 167 201 259 204 232 171 119 259 2 182 253 57 172 190 195 174 163 166 164 164 164 163 165 168 171 172 173 172 173 174 175 175 174 172 170 169 170 174 172 168 165 160 164 166 164 165 166 165 163 163 160 160 163 163 163 164 167 164 159 154 150 150 150 152 155 158 160 158 159 162 160 162 166 167 174 172 164 162
13 346 329 111 236 287 241 258 255 230 244 257 259 258 247 236 181 170 257 244 257 259 254 218 153 201 248 72 261 273 7 197 179 171 166 165 166 163 165 167 167 167 169 173 173 174 173 174 175 176 175 175 173 171 171 172 176 173 170 168 165 166 168 170 169 169 169 167 165 162 163 164 164 164 166 170 170 165 158 156 153 153 158 158 160 161 161 162 164 165 166 171 173 179 179 176 173
13 356 11 196 183 249 260 245 254 247 241 254 258 258 250 215 190 212 225 245 240 248 280 159 135 237 192 162 243 295 350 172 154 159 166 168 165 164 167 169 171 170 171 174 174 175 175 176 177 176 177 176 174 174 174 174 177 174 171 172 171 168 169 171 171 173 173 171 167 167 169 167 168 169 169 173 174 169 164 163 159 157 161 161 164 165 166 167 168 170 173 177 178 181 184 185 184
15 310 119 241 233 235 249 242 256 255 260 295 272 247 237 208 178 237 224 255 241 220 271 123 164 214 153 267 243 344 148 163 159 160 167 169 166 167 169 171 175 174 174 174 175 177 176 177 178 178 178 177 176 176 177 176 178 176 174 175 173 169 170 172 175 178 178 176 172 172 174 171 173 174 172 177 176 171 171 171 166 163 164 165 168 169 171 173 173 174 179 181 183 188 192 193 193
175 238 110 237 231 225 232 241 260 268 277 286 265 246 206 179 168 232 208 238 231 212 238 179 193 164 128 293 258 344 149 166 169 165 168 170 168 169 171 172 176 177 177 176 176 178 177 178 178 179 179 179 178 178 180 179 180 180 178 178 174 174 176 179 182 183 183 180 176 177 179 176 178 178 174 180 182 176 175 175 174 172 170 170 172 172 175 178 177 179 187 188 191 195 200 201 199
176 161 136 230 207 196 221 244 266 280 274 242 248 255 146 158 197 225 195 217 203 191 239 200 172 136 158 267 270 318 171 176 171 166 169 169 169 171 173 174 176 178 178 177 176 179 180 177 179 181 180 180 181 181 183 181 182 182 180 180 178 182 186 189 188 183 186 183 179 184 186 181 181 184 180 182 186 182 181 179 179 180 178 179 181 179 182 186 184 187 196 199 202 201 204 207 206
195 157 159 233 220 185 210 240 262 264 262 250 236 203 164 188 218 217 173 214 212 188 225 183 144 131 182 263 287 273 189 182 168 166 167 168 171 171 174 175 177 178 178 179 178 181 180 177 180 183 182 182 183 183 184 183 184 183 182 183 184 191 192 194 189 180 186 186 185 192 191 185 184 189 190 189 188 188 189 186 184 184 185 190 192 190 192 197 196 200 204 205 212 212 210 211 211
225 167 157 230 238 213 207 215 230 244 259 254 221 177 192 237 204 184 186 210 228 202 151 140 149 161 194 176 236 237 174 174 166 164 163 166 170 170 175 175 177 179 179 179 179 182 181 178 181 184 184 184 184 184 185 185 185 185 185 188 191 197 195 196 194 182 184 189 192 196 194 191 190 194 198 196 193 195 198 194 191 189 191 197 198 202 204 204 207 213 214 216 223 225 226 221 217
247 162 152 233 228 222 211 195 204 234 254 226 212 138 200 270 197 176 221 197 216 228 150 162 179 153 172 177 238 183 159 165 162 161 161 161 165 168 173 174 177 179 179 181 181 183 181 180 183 186 186 186 186 186 186 186 186 189 191 196 199 201 198 197 201 190 186 191 196 197 197 197 197 200 200 198 196 198 202 200 197 196 196 198 201 209 210 211 215 217 219 230 243 245 248 240 229
297 185 200 226 225 220 199 184 193 216 261 205 216 115 164 291 294 221 248 152 155 231 190 194 201 107 168 219 267 155 154 159 157 157 157 158 161 164 169 173 177 179 181 184 183 184 183 183 185 187 188 189 189 188 188 187 188 192 196 202 203 202 200 200 205 196 189 193 197 196 199 201 203 205 202 202 201 200 207 207 204 202 200 199 206 212 213 217 221 223 223 232 249 259 262 258 250
222 204 216 223 226 220 194 197 200 191 235 199 186 163 159 296 303 291 16 29 9 207 254 282 291 339 233 272 145 150 153 155 157 158 157 160 163 164 170 175 177 181 183 186 186 186 185 186 187 188 189 190 191 190 191 190 192 195 200 204 203 201 200 201 205 198 192 195 197 197 200 202 204 207 207 213 210 204 209 214 211 208 205 204 211 216 216 220 225 227 228 231 240 253 263 264 264
202 206 220 226 227 213 189 209 214 215 221 195 212 189 159 198 265 329 324 274 241 170 256 328 284 274 17 109 141 149 153 156 162 164 164 167 169 169 172 176 179 183 185 187 188 189 188 188 189 189 190 192 192 193 193 195 196 198 202 203 201 200 200 200 201 197 196 198 198 198 200 202 207 210 213 219 218 211 213 216 217 217 216 213 217 222 221 225 232 231 231 235 237 242 250 255 259
218 214 225 232 231 222 199 208 219 230 231 211 242 223 173 222 189 86 234 260 226 194 227 222 236 235 163 132 147 152 156 162 169 171 172 173 175 175 175 178 183 186 187 188 188 190 190 189 191 191 192 193 193 195 196 198 199 200 201 201 201 200 200 200 199 198 198 200 200 200 201 205 211 216 218 220 219 216 217 219 221 224 225 224 225 227 226 230 237 237 239 241 241 243 246 250 254
248 216 234 243 228 233 217 202 221 232 238 231 241 270 280 245 159 163 158 262 276 240 231 214 226 214 167 162 159 161 162 167 175 178 179 177 178 180 181 183 186 187 187 188 190 192 192 192 193 193 193 194 195 197 198 200 200 200 199 200 202 202 201 201 200 200 200 202 203 204 205 209 214 218 219 218 216 216 219 221 223 226 228 230 231 230 229 231 235 239 244 244 242 246 250 255 258
287 242 250 259 238 236 221 202 230 228 224 229 236 252 265 269 147 183 163 208 250 235 235 228 228 156 162 173 165 165 168 174 179 184 185 182 182 182 185 185 186 187 188 191 194 194 195 194 194 194 195 196 197 199 201 202 200 200 200 201 203 204 205 204 203 203 203 205 206 209 210 213 217 219 218 217 218 221 224 225 227 229 231 234 235 235 232 233 236 241 247 247 246 250 254 259 263
270 262 261 259 250 254 256 226 234 221 219 226 225 238 262 268 263 209 174 212 233 206 134 251 228 158 153 160 171 175 176 182 186 189 188 186 185 183 184 184 184 188 191 195 196 196 198 197 197 196 196 197 199 201 203 203 201 201 201 202 204 206 207 207 207 205 206 207 209 212 214 216 219 221 222 222 224 226 229 231 232 234 236 238 238 241 241 240 242 245 249 251 251 254 258 263 265
269 266 261 264 266 265 266 267 268 242 234 235 219 199 231 239 250 208 198 234 246 247 34 288 187 151 149 158 182 189 185 189 192 192 191 189 189 186 185 185 186 189 193 197 197 198 199 200 200 199 199 200 200 203 204 203 202 202 202 203 205 207 209 210 210 209 209 210 212 215 217 219 220 222 225 227 229 231 233 235 235 236 238 241 242 244 246 247 249 252 255 257 258 260 263 266 269
254 253 263 275 278 273 266 260 263 260 256 252 219 228 237 233 247 282 232 249 266 275 275 161 137 150 162 171 185 195 197 198 197 194 195 195 192 189 187 188 187 189 194 198 199 200 200 201 202 202 202 202 203 205 205 203 203 203 204 205 206 208 210 212 213 213 213 214 215 217 218 220 221 223 225 227 230 233 236 237 238 239 240 242 243 245 247 249 252 255 258 261 263 266 268 271 273
241 250 267 271 273 278 282 260 248 253 255 230 225 242 247 231 292 273 239 239 268 318 316 170 145 171 184 185 186 190 201 203 200 195 195 195 192 191 191 190 189 192 197 198 199 201 201 201 203 205 205 205 205 206 205 205 205 206 206 207 208 210 212 213 214 215 216 217 218 219 221 222 225 227 230 230 230 232 234 237 239 240 242 242 244 246 248 250 252 255 257 261 265 269 271 274 277
281 286 278 271 279 278 272 268 254 256 249 222 232 246 249 175 161 248 234 214 225 68 67 142 156 191 201 204 195 190 198 202 200 193 189 192 194 195 194 192 193 196 197 197 201 203 203 203 204 206 207 207 207 207 207 207 208 209 209 210 211 213 215 216 216 218 219 220 221 223 223 225 227 230 233 234 234 234 234 236 239 240 241 242 243 246 248 250 252 254 258 263 268 271 274 277 277
276 285 290 281 287 278 255 259 258 266 252 219 228 248 251 170 200 235 230 187 159 111 120 150 172 213 217 223 216 205 205 201 196 190 192 195 197 197 196 195 194 196 197 198 201 203 204 205 206 207 208 209 208 208 209 209 210 211 211 213 215 216 218 219 220 221 221 223 225 226 226 227 229 231 234 236 238 238 237 238 239 240 241 241 242 244 247 249 252 256 260 263 267 270 273 274 275
245 255 281 282 287 278 251 246 246 245 250 202 197 251 245 222 227 232 229 224 216 226 231 198 196 212 213 219 223 229 226 203 195 203 207 203 200 198 198 199 196 196 199 201 201 201 206 208 208 208 209 211 210 210 210 211 212 213 215 216 218 219 221 222 223 224 225 227 228 229 230 230 231 233 235 238 241 242 242 242 242 242 243 243 243 243 245 248 251 255 259 261 263 266 268 271 274
234 229 250 271 287 272 243 232 235 230 240 186 163 244 240 230 233 227 227 231 234 251 250 240 230 214 205 203 203 224 226 208 208 216 215 208 206 204 201 201 199 199 200 200 201 202 206 208 208 209 210 212 212 212 213 214 214 215 218 219 220 222 223 225 226 227 229 230 232 233 234 234 235 235 237 239 242 244 245 245 244 244 245 247 246 244 245 247 249 253 256 259 260 262 265 269 272
207 204 222 234 249 255 231 210 211 221 234 189 192 246 245 238 233 218 221 218 214 239 244 240 235 221 207 201 201 217 215 217 225 226 225 220 215 210 207 204 201 201 201 200 202 204 206 206 208 209 211 212 213 215 215 216 217 217 219 221 222 224 225 227 228 230 231 233 234 236 236 237 237 238 239 240 242 244 245 246 247 247 248 250 249 246 245 247 248 251 254 258 260 262 264 268 272
197 196 216 205 229 252 258 229 205 215 228 186 200 244 252 245 238 214 208 203 208 228 238 235 231 219 207 203 203 214 215 221 230 233 233 230 224 219 213 208 205 204 202 202 203 205 206 206 209 210 211 213 214 216 217 218 220 220 222 224 225 226 227 229 231 232 234 235 237 238 238 239 239 239 240 241 242 243 245 247 248 248 250 250 249 246 245 247 248 252 255 257 260 262 264 268 271
209 209 227 200 219 244 260 247 213 214 224 196 208 237 257 246 238 226 196 190 208 222 232 231 225 220 210 204 205 211 217 221 228 231 230 229 228 224 219 213 209 207 206 205 204 204 205 207 209 211 213 214 215 216 217 218 220 222 224 225 227 228 229 230 232 233 235 236 237 239 240 240 240 240 240 241 242 243 245 246 248 248 248 248 249 247 246 248 250 254 256 257 259 261 264 266 269
205 212 246 237 222 234 237 240 220 212 220 213 215 233 246 246 258 240 195 189 206 215 227 229 222 218 211 204 207 206 211 220 223 225 226 228 229 228 225 219 214 212 211 210 208 206 206 207 209 211 214 215 216 217 218 219 221 223 225 227 229 230 231 233 233 234 235 236 238 239 241 241 242 242 242 243 243 244 245 246 247 247 246 246 246 247 248 250 252 254 255 257 258 259 261 264 268
215 205 219 239 243 252 243 244 231 207 215 221 218 233 243 245 262 281 230 198 209 213 217 225 217 205 210 207 210 210 212 223 224 224 227 227 228 229 228 224 219 216 214 213 212 211 209 209 210 212 213 214 216 217 218 220 221 223 225 227 229 230 232 233 234 235 235 236 238 240 241 242 243 243 243 243 243 244 244 245 245 245 245 244 245 246 247 249 250 251 253 255 257 259 261 264 268
251 227 221 217 223 249 249 251 260 222 218 224 221 234 245 244 243 254 271 211 208 223 218 221 216 205 213 208 211 214 217 230 224 221 230 231 227 226 227 226 222 219 216 215 215 214 213 211 211 212 213 213 214 215 215 216 217 219 221 223 225 228 230 232 234 235 236 237 238 239 240 241 242 242 243 243 243 244 244 245 245 245 245 244 244 245 246 248 250 251 253 255 257 259 261 263 266
278 257 238 212 203 248 256 251 278 316 240 229 225 233 241 241 235 232 247 230 203 223 218 221 227 220 213 210 226 224 220 237 229 219 229 235 232 224 222 223 222 221 218 217 216 217 217 214 212 213 213 212 211 213 213 213 214 215 218 220 222 225 227 229 232 235 236 238 239 239 240 241 243 243 244 244 244 244 244 245 245 245 245 244 245 247 249 251 252 253 254 255 255 256 258 261 263
278 244 219 213 209 249 265 254 286 352 323 241 233 235 240 239 231 216 233 241 224 212 208 219 229 228 217 219 232 230 221 237 229 224 231 235 235 224 218 217 217 218 218 216 217 218 218 216 216 215 213 212 213 214 213 214 216 216 217 219 222 225 227 228 231 235 237 239 240 240 241 242 243 244 245 245 245 244 244 244 245 246 246 246 247 248 250 251 251 251 249 249 251 252 256 260 261
272 243 215 223 210 253 277 272 313 348 344 264 254 240 244 244 235 219 222 235 234 214 205 214 224 230 222 218 224 220 222 245 241 235 236 236 236 226 217 216 216 219 219 218 219 218 216 217 219 218 216 215 216 215 214 217 218 217 219 220 222 225 228 231 234 237 239 240 241 241 242 242 242 243 244 245 244 244 243 244 245 246 247 247 247 247 247 247 248 247 246 246 248 250 254 257 255
245 234 230 233 184 116 258 278 339 336 285 259 279 265 258 255 243 229 226 230 233 226 219 218 219 228 227 218 219 214 214 232 245 247 239 232 236 229 218 217 218 219 219 219 220 218 216 218 219 218 219 219 217 216 217 218 218 218 220 222 224 227 231 234 237 240 240 240 241 241 241 240 240 241 241 242 243 243 243 243 244 244 245 246 246 246 246 246 246 245 245 245 245 244 248 253 253
245 235 239 240 187 176 235 294 347 334 318 324 335 303 269 242 221 227 230 228 228 231 234 238 233 233 242 233 226 222 215 217 227 235 233 218 215 217 215 217 219 218 219 220 219 217 216 219 220 219 220 221 220 219 218 216 215 216 217 219 223 227 230 232 234 237 236 236 237 237 238 237 238 239 238 239 241 242 242 242 242 243 243 245 245 245 246 246 246 246 246 246 244 241 245 252 252
300 272 276 265 215 205 278 348 6 0 330 356 17 306 262 232 212 219 211 206 214 222 230 240 243 235 238 243 231 225 224 222 222 227 231 224 215 213 211 216 220 220 221 223 222 219 219 221 221 219 220 222 223 222 219 214 212 212 210 209 212 216 221 223 226 230 230 229 232 234 235 236 236 237 237 237 239 240 242 242 242 242 242 243 244 245 245 245 245 246 247 246 245 244 245 248 248
298 243 321 289 222 196 242 334 15 75 251 319 46 30 273 326 286 255 221 203 205 200 212 231 246 241 220 224 232 225 223 226 232 235 232 228 230 226 221 218 218 222 226 227 226 223 223 224 223 220 220 221 223 222 218 213 212 212 211 211 212 213 217 223 227 229 229 230 233 234 235 236 237 237 237 237 237 239 240 241 242 242 242 243 243 244 243 243 244 246 248 247 246 245 242 240 243
220 183 82 18 249 215 218 206 198 218 268 305 50 74 279 296 284 269 237 225 228 211 206 217 234 247 241 229 228 231 232 225 229 242 241 231 219 216 232 236 231 231 232 231 230 227 225 226 226 224 222 222 222 221 217 214 212 212 213 214 217 218 222 229 232 232 234 235 236 237 238 239 240 240 240 239 239 239 240 241 242 242 242 242 241 242 243 244 245 246 246 246 246 244 240 239 240
184 169 140 82 46 230 204 183 197 209 274 283 298 11 279 269 269 270 220 220 247 240 226 226 224 238 250 251 242 231 234 236 231 236 241 245 232 211 223 237 239 235 232 231 232 231 228 227 226 225 225 225 223 221 218 216 215 215 215 216 219 223 227 232 235 236 238 238 239 240 241 242 243 243 243 243 242 241 241 242 241 241 242 241 241 242 244 245 245 244 244 243 243 242 241 240 239
153 145 136 111 77 318 140 159 171 110 124 247 260 206 217 269 256 245 254 217 231 245 248 246 238 238 245 254 260 253 239 238 237 235 231 240 246 232 223 230 236 232 229 229 231 232 231 229 227 226 226 225 223 222 220 219 218 216 217 218 221 225 229 233 235 236 238 239 240 241 241 242 243 244 245 245 245 244 244 244 243 243 243 242 242 244 244 244 244 244 243 243 243 242 241 240 239
97 105 94 96 92 69 73 101 104 81 97 240 238 202 184 267 237 181 219 222 208 223 251 262 261 261 260 254 258 260 253 246 241 241 238 233 244 248 238 233 237 236 233 229 229 232 232 229 226 226 227 226 224 222 221 221 220 217 218 220 222 226 229 231 232 232 234 235 237 239 240 241 242 244 245 246 246 246 246 246 246 246 245 244 244 245 244 244 244 244 243 243 243 243 242 241 241
57 92 104 140 171 94 79 29 71 102 250 241 224 196 178 235 252 204 258 282 245 221 230 251 257 256 261 262 258 258 256 258 256 253 256 248 245 251 247 239 241 240 236 231 228 229 230 229 226 225 226 226 225 223 221 222 222 220 221 221 223 227 229 229 230 230 232 231 234 237 238 239 241 243 245 245 247 247 246 245 245 245 245 244 245 246 245 244 244 243 242 242 242 242 242 241 240
30 97 111 117 96 49 138 194 96 190 250 272 208 178 184 241 243 241 267 284 277 251 236 245 255 255 256 259 260 265 268 269 270 264 265 267 261 257 252 251 253 251 246 241 236 231 230 230 227 226 226 225 223 222 221 223 224 223 223 222 224 227 229 230 231 232 232 232 233 234 234 236 238 240 242 244 248 248 245 245 245 245 246 246 247 246 245 245 243 242 241 241 241 242 241 240 240
15 20 105 113 133 334 223 202 86 218 298 340 182 167 234 277 242 219 232 247 248 245 245 241 246 252 257 266 275 283 286 280 274 268 268 271 269 266 261 259 258 255 252 249 246 241 236 233 229 228 230 229 224 222 221 220 222 224 223 223 224 226 228 230 231 232 233 233 233 233 235 236 238 241 243 248 252 250 247 247 248 248 249 249 249 247 246 245 243 242 241 240 241 242 242 241 241
250 240 119 97 119 233 257 160 76 351 335 346 12 151 204 230 248 227 226 248 267 266 270 270 272 278 287 312 331 329 317 314 315 309 305 301 297 301 296 283 275 268 262 255 248 243 238 235 232 230 231 231 226 223 221 220 222 224 223 224 225 226 228 230 232 233 234 233 234 235 238 239 240 243 247 251 253 251 249 250 250 250 250 250 249 248 247 245 243 242 241 241 242 242 241 240 242
265 246 98 81 284 226 242 188 172 124 25 329 197 211 224 210 294 315 281 313 3 7 2 10 4 350 1 5 356 353 347 344 348 344 337 334 332 335 329 317 311 305 297 287 272 258 245 240 236 232 232 233 230 226 224 224 225 225 224 225 226 226 227 229 231 233 234 235 235 236 238 240 242 245 247 250 252 251 251 251 250 250 251 250 249 249 248 246 243 241 240 240 240 241 239 238 240
299 16 59 256 225 138 80 308 207 115 99 268 161 224 274 298 313 336 24 44 30 24 22 28 22 12 18 13 354 352 349 342 344 348 346 343 344 343 340 334 326 318 312 307 299 287 271 258 249 241 237 235 233 231 229 228 227 227 226 226 227 227 227 228 230 232 234 235 235 236 238 240 242 244 246 249 251 251 250 250 250 250 250 249 248 249 248 246 243 241 240 239 240 241 239 238 239
353 354 318 294 64 100 91 326 349 68 215 267 162 216 258 354 281 340 23 32 23 17 13 15 14 14 10 352 339 339 334 330 331 339 348 348 348 345 343 342 337 329 319 308 302 297 288 276 264 254 247 241 238 236 233 230 229 228 228 228 228 228 228 229 231 232 234 234 233 234 236 238 241 243 246 248 249 250 250 250 249 249 249 247 247 247 247 245 243 241 240 241 242 242 238 238 240
28 287 310 344 43 10 6 23 3 10 315 308 280 232 248 192 259 353 8 6 9 8 6 8 1 355 350 335 334 334 333 336 334 337 344 344 345 344 343 343 342 339 334 323 312 304 296 288 278 265 256 252 248 244 238 233 230 229 230 230 229 229 229 230 232 233 233 232 233 235 236 238 241 243 245 246 247 248 249 248 247 247 247 246 245 245 245 244 242 239 239 240 241 240 237 236 239
345 327 1 31 33 315 342 72 39 47 303 312 341 348 319 266 236 42 320 322 6 10 3 2 346 336 336 331 332 333 334 336 333 332 335 337 339 340 343 343 339 337 336 334 332 325 312 301 292 282 272 264 258 253 247 240 235 232 232 232 231 231 231 231 232 232 231 232 234 235 237 239 241 243 244 245 247 248 247 246 246 245 244 243 243 243 243 242 240 238 237 238 239 238 235 235 237
352 16 22 13 349 340 358 20 65 72 346 336 358 324 275 244 199 188 229 272 24 20 358 348 338 333 333 334 334 333 333 333 330 330 332 333 334 334 338 339 336 335 336 339 341 338 330 319 303 290 281 273 264 258 253 246 241 237 234 233 232 231 231 231 231 231 232 234 235 236 239 241 242 243 244 244 246 246 246 245 245 243 242 241 242 242 242 241 238 236 236 237 238 236 233 233 235
339 34 32 11 355 17 19 355 20 34 6 348 355 290 269 238 184 181 208 312 4 12 356 343 343 340 335 338 337 332 332 333 331 329 329 331 331 331 333 333 333 334 336 338 340 340 338 332 321 305 289 278 270 264 259 253 245 239 236 236 235 233 232 231 230 231 232 234 236 238 240 241 241 243 244 245 245 245 244 244 242 241 240 241 241 242 241 239 236 234 234 234 235 233 232 232 233